User: anonymous   Login
Location: Unspecified
(0.0000°N, 0.0000°E)
Time: 00:04:30
(UTC+00:00)
Language:

OPS 7613 P/L 1 - Orbit

View from above orbital plane
View from above orbital plane
View from above satellite
View from above satellite

Ground track
Ground track

The orbit data is extracted from the following two-line orbital elements,

1  4256U 69082B   17172.42575004 +.00000008 +00000-0 +42593-4 0  9992
2  4256 070.0085 169.5452 0017924 034.1511 326.0745 13.98258173431494
Epoch (UTC): 21 June 2017 10:13:04
Eccentricity: 0.0017924
inclination: 70.0085°
perigee height: 887 km
apogee height: 913 km
right ascension of ascending node: 169.5452°
argument of perigee: 34.1511°
revolutions per day: 13.98258173
mean anomaly at epoch: 326.0745°
orbit number at epoch: 43149

The dashed part of the orbit path shows where the satellite is in the earth's shadow,  

DLR